Location: Sungai Buloh
(3.1000°N, 113.0000°E)
Time: 17:00:14
(UTC+00:00)

ATLAS 5 CENTAUR R/B - Pass Details

Date: 12 January 2026
Orbit: 368 x 1079 km, 63.3° (Epoch: 10 February)

Event Time Altitude Azimuth Distance (km) Brightness Sun altitude
Exits shadow 20:31:53 61° 205° (SSW) 1,113 2.6 -30.0°
Drops below altitude 10° 20:37:53 10° 165° (SSE) 2,878 5.4 -28.6°
Sets 20:40:41 0° 162° (SSE) 3,867 6.2 -28.0°
